[[{"header":{"parameterUnit":"m.s-1","parameterCategory":2,"la1":30.2991,"la2":30.254,"lo1":-89.0895,"lo2":-89.0444,"dy":0.0017,"dx":0.0017,"nx":28,"ny":28,"refTime":"2023-09-25T03:00:00:Z","depth":"0","parameterNumber":2,"parameterNumberName":"U-component_of_CURRENTS"},"data":[0,0,0,0,0,0,0,0,0,0,0,0,0,0,0,0,0,0,0,0,0,0,0,0,0,0,0,0,0,0,0,0,0,0,0,0,0,0,0,0,0,0,0,0,0,0,0,0,0,0,0,0,0,0,0,0,0,0,0.3128,0.3129,0,0.3175,0.3175,0.3175,0.3196,0.3196,0.3196,0.3196,0.321,0.321,0.3211,0,0,0,0,0,0,0,0,0,0,0,0,0,0.307,0.3071,0.3128,0.3129,0.3129,0.3174,0.3175,0.3176,0.3196,0.3196,0.3196,0.3196,0.321,0.321,0.3211,0,0,0,0,0,0,0,0,0,0,0,0,0,0.3103,0.3071,0.3128,0.3145,0.3147,0.3174,0.3175,0.3176,0.3196,0.3196,0.3196,0.3196,0.321,0.321,0.3211,0.3215,0,0,0.3213,0.3213,0,0,0,0,0,0,0,0,0.3101,0.3105,0.3142,0.3144,0.3147,0.318,0.316,0.3188,0.3196,0.3177,0.3196,0.3196,0.3197,0.3199,0.3207,0.3216,0.3216,0.3213,0.3213,0.3213,0.3214,0,0,0,0,0,0,0,0.3099,0.3103,0.3146,0.3143,0.3146,0.3155,0.316,0.3165,0.3186,0.3178,0.318,0.3186,0.3198,0.3207,0.3208,0.3217,0.3213,0.3213,0.3214,0.3214,0.3265,0.3266,0,0,0,0,0,0,0.3094,0.3101,0.3145,0.3147,0.3124,0.3156,0.3161,0.3169,0.3186,0.3189,0.3186,0.3187,0.3206,0.3207,0.3208,0.3263,0.3213,0.3214,0.3214,0.3264,0.3265,0.3266,0,0,0,0,0,0,0.3092,0.3097,0.3143,0.3126,0.3132,0.3157,0.3165,0.317,0.3177,0.3193,0.3195,0.3189,0.3206,0.3207,0.3217,0.3262,0.3214,0.3215,0.3263,0.3264,0.3266,0.3341,0,0,0,0,0,0,0.309,0.3096,0.3103,0.3125,0.3133,0.3165,0.3166,0.3171,0.3181,0.3182,0.3196,0.3197,0.3206,0.3216,0.3218,0.3262,0.3215,0.3262,0.3264,0.3265,0.3338,0.3345,0.3352,0,0,0,0,0,0.3088,0.31,0.3103,0.3109,0.314,0.3166,0.3171,0.3188,0.3181,0.3192,0.3197,0.3197,0.323,0.3217,0.3219,0.3264,0.3261,0.3263,0.3265,0.3334,0.3344,0.3352,0,0,0,0,0,0,0.3076,0.3104,0.3108,0.3126,0.3146,0.317,0.3183,0.3185,0.3197,0.3197,0.3201,0.3203,0.3237,0.3227,0.3213,0.3283,0.3249,0.3252,0.3301,0.331,0.3317,0.3329,0.3216,0,0,0,0,0,0.3077,0.3092,0.3117,0.313,0.3142,0.3158,0.317,0.318,0.3193,0.3198,0.321,0.3222,0.3249,0.3257,0.3275,0.3299,0.3319,0.3331,0.3338,0.3344,0.3355,0.3407,0.3421,0.3274,0.3274,0.3274,0,0,0.3069,0.3091,0.3096,0.3129,0.3145,0.3177,0.3166,0.3186,0.3216,0.3197,0.3237,0.3246,0.3259,0.3303,0.3317,0.3299,0.3401,0.3347,0.3352,0.336,0.3411,0.3425,0.3438,0.3275,0.3275,0.3275,0,0,0.3076,0.3089,0.3109,0.3134,0.3166,0.3185,0.3189,0.3216,0.3233,0.3261,0.327,0.3298,0.3321,0.3356,0.3371,0.342,0.3438,0.3427,0.3475,0.3526,0.354,0.3551,0.3619,0.3636,0.3429,0.3429,0.3429,0,0.3071,0.3101,0.3117,0.3153,0.3181,0.3189,0.3223,0.3247,0.3274,0.3296,0.3281,0.3349,0.3354,0.3427,0.345,0.3441,0.3474,0.3445,0.3538,0.355,0.356,0.3627,0.3645,0.3433,0.3433,0.3432,0.3432,0,0.3095,0.3127,0.3143,0.3196,0.3228,0.3256,0.3295,0.3325,0.3339,0.3362,0.3423,0.3437,0.3478,0.3493,0.3487,0.3575,0.3578,0.3545,0.3521,0.358,0.3646,0.3664,0.3439,0.3437,0.3436,0.3435,0,0,0.3074,0.3146,0.3154,0.319,0.3254,0.3282,0.3344,0.3402,0.3441,0.3473,0.353,0.3582,0.3585,0.3603,0.361,0.3653,0.3761,0.3634,0.3635,0.3711,0.39,0.3967,0.3992,0.3748,0.375,0.3753,0.3925,0,0.3092,0.3161,0.3196,0.3266,0.3308,0.3353,0.3408,0.3463,0.3503,0.3559,0.3594,0.3641,0.363,0.3651,0.3701,0.3729,0.3806,0.3719,0.3823,0.3826,0.3886,0.4013,0.3836,0.3981,0.3942,0.3945,0.3947,0,0.3113,0.3161,0.3227,0.3313,0.3334,0.3372,0.3467,0.3517,0.36,0.3631,0.3695,0.3714,0.3792,0.3759,0.3883,0.3828,0.3887,0.3913,0.392,0.3967,0.3926,0.3909,0.4013,0.3866,0.3973,0.3971,0.3969,0,0.3099,0.3187,0.3239,0.327,0.3362,0.3399,0.3445,0.3532,0.3597,0.3674,0.3731,0.3802,0.3861,0.3918,0.4013,0.394,0.4165,0.4058,0.4193,0.4198,0.4061,0.405,0.4039,0.4187,0.4186,0.4186,0.4185,0,0.3114,0.3158,0.3231,0.326,0.333,0.3389,0.3468,0.3526,0.3625,0.3704,0.3761,0.3858,0.3906,0.4041,0.4073,0.4233,0.423,0.4249,0.4263,0.4085,0.4075,0.395,0.3891,0.4192,0.4191,0.419,0.4189,0,0.3103,0.3144,0.3218,0.3303,0.3327,0.3378,0.349,0.3543,0.3637,0.3748,0.378,0.3934,0.4101,0.4213,0.4342,0.4345,0.4337,0.4525,0.4339,0.4329,0.4231,0.4183,0.4103,0.3988,0.4628,0.4631,0.4633,0,0.3109,0.3139,0.3241,0.3273,0.3309,0.3386,0.3431,0.3537,0.3603,0.3801,0.3853,0.4076,0.4207,0.4475,0.4549,0.4678,0.4515,0.4587,0.4406,0.426,0.4215,0.4018,0.3909,0.4251,0.425,0.4249,0.4249,0,0.3123,0.3154,0.3207,0.3279,0.3326,0.3387,0.3456,0.3512,0.3635,0.3743,0.3897,0.4016,0.4319,0.4388,0.463,0.4664,0.4331,0.4579,0.4443,0.3968,0.3732,0.3615,0.4122,0.4243,0.4243,0.4244,0.4244,0.4244,0.3142,0.317,0.3229,0.3284,0.3328,0.3345,0.3356,0.3438,0.3531,0.3645,0.3839,0.3989,0.4181,0.4478,0.4495,0.4412,0.4375,0.4222,0.4198,0.4027,0.3846,0.4393,0.4522,0.4524,0.4526,0.4528,0.4529,0,0.3174,0.318,0.3225,0.3268,0.3264,0.3305,0.334,0.332,0.3362,0.3541,0.3667,0.3891,0.399,0.4117,0.4148,0.4003,0.3755,0.3892,0.3495,0.3421,0.3915,0.3828,0.3792,0.3792,0.3792,0.3792,0.3793,0.3793,0.3197,0.3211,0.3204,0.3181,0.3186,0.3134,0.3115,0.31,0.3181,0.3272,0.3403,0.3567,0.3757,0.3839,0.3704,0.3622,0.3306,0.3206,0.3203,0.3472,0.3495,0.3517,0.3416,0.3295,0.3295,0.2494,0.2488,0.2484]},{"header":{"parameterUnit":"m.s-1","parameterCategory":2,"la1":30.2991,"la2":30.254,"lo1":-89.0895,"lo2":-89.0444,"dy":0.0017,"dx":0.0017,"nx":28,"ny":28,"refTime":"2023-09-25T03:00:00:Z","depth":"0","parameterNumber":3,"parameterNumberName":"V-component_of_CURRENTS"},"data":[0,0,0,0,0,0,0,0,0,0,0,0,0,0,0,0,0,0,0,0,0,0,0,0,0,0,0,0,0,0,0,0,0,0,0,0,0,0,0,0,0,0,0,0,0,0,0,0,0,0,0,0,0,0,0,0,0,0,-0.0152,-0.0152,0,-0.0215,-0.0216,-0.0217,-0.0297,-0.0298,-0.0299,-0.03,-0.0409,-0.0411,-0.0412,0,0,0,0,0,0,0,0,0,0,0,0,0,-0.0138,-0.0138,-0.0152,-0.0152,-0.0153,-0.0215,-0.0216,-0.0217,-0.0297,-0.0298,-0.0299,-0.03,-0.0408,-0.041,-0.0413,0,0,0,0,0,0,0,0,0,0,0,0,0,-0.017,-0.0138,-0.0152,-0.0198,-0.0203,-0.0215,-0.0216,-0.0218,-0.0297,-0.0298,-0.03,-0.0301,-0.0407,-0.041,-0.0413,-0.04,0,0,-0.0422,-0.0423,0,0,0,0,0,0,0,0,-0.0168,-0.017,-0.0191,-0.0195,-0.02,-0.0247,-0.0251,-0.028,-0.0296,-0.0264,-0.03,-0.0302,-0.0356,-0.0363,-0.0375,-0.0405,-0.041,-0.0422,-0.0424,-0.0425,-0.0426,0,0,0,0,0,0,0,-0.0165,-0.0168,-0.018,-0.0191,-0.0197,-0.0229,-0.0235,-0.0257,-0.0303,-0.0267,-0.0272,-0.0274,-0.0359,-0.0372,-0.0378,-0.0412,-0.0422,-0.0425,-0.0426,-0.0428,-0.0524,-0.0525,0,0,0,0,0,0,-0.0148,-0.0166,-0.0178,-0.0181,-0.0184,-0.0227,-0.0234,-0.0233,-0.0302,-0.0313,-0.0273,-0.0278,-0.0366,-0.0375,-0.0382,-0.0446,-0.0425,-0.0428,-0.0429,-0.0523,-0.0524,-0.0525,0,0,0,0,0,0,-0.0147,-0.0148,-0.0175,-0.0173,-0.0179,-0.0225,-0.0223,-0.0233,-0.0247,-0.0306,-0.0319,-0.0276,-0.0368,-0.0378,-0.0413,-0.0448,-0.0429,-0.0432,-0.0522,-0.0524,-0.0525,-0.0525,0,0,0,0,0,0,-0.0147,-0.0148,-0.014,-0.0172,-0.0178,-0.018,-0.0222,-0.0233,-0.0244,-0.0251,-0.0312,-0.0324,-0.037,-0.0408,-0.0415,-0.0452,-0.0434,-0.0521,-0.0523,-0.0524,-0.0524,-0.0526,-0.0528,0,0,0,0,0,-0.0146,-0.0128,-0.0139,-0.014,-0.0166,-0.0179,-0.0185,-0.0226,-0.0242,-0.0244,-0.0293,-0.0323,-0.0424,-0.041,-0.0419,-0.0457,-0.052,-0.0522,-0.0524,-0.0523,-0.0526,-0.0528,0,0,0,0,0,0,-0.0109,-0.0135,-0.0148,-0.0136,-0.0154,-0.0191,-0.0195,-0.0214,-0.0251,-0.026,-0.0318,-0.0333,-0.0383,-0.0407,-0.039,-0.049,-0.0483,-0.0486,-0.0479,-0.0481,-0.0483,-0.0464,-0.0436,0,0,0,0,0,-0.0096,-0.0093,-0.0121,-0.0106,-0.0118,-0.0151,-0.016,-0.0183,-0.0218,-0.0236,-0.0278,-0.0333,-0.0396,-0.0425,-0.0469,-0.0506,-0.0491,-0.054,-0.0542,-0.0544,-0.0535,-0.0545,-0.0547,-0.0531,-0.0531,-0.0531,0,0,-0.0073,-0.0087,-0.0083,-0.0099,-0.012,-0.0132,-0.0162,-0.0169,-0.019,-0.024,-0.0278,-0.0331,-0.0403,-0.0464,-0.0489,-0.049,-0.0535,-0.0546,-0.0547,-0.0537,-0.0547,-0.0549,-0.055,-0.0532,-0.0532,-0.0532,0,0,-0.0031,-0.0044,-0.0034,-0.0052,-0.0075,-0.0103,-0.01,-0.0134,-0.0167,-0.0194,-0.0262,-0.0322,-0.0386,-0.0465,-0.0511,-0.054,-0.054,-0.0565,-0.0568,-0.0579,-0.058,-0.058,-0.0532,-0.0528,-0.0573,-0.0573,-0.0573,0,-0.0005,-0.0,-0.003,-0.0033,-0.0049,-0.0087,-0.0089,-0.0124,-0.0165,-0.0192,-0.0204,-0.0328,-0.0391,-0.0493,-0.0529,-0.0546,-0.0527,-0.0555,-0.058,-0.058,-0.0581,-0.0532,-0.0528,-0.0573,-0.0573,-0.0573,-0.0573,0,0.0033,0.0032,0.0036,0.001,-0.0008,-0.0011,-0.0066,-0.0093,-0.0128,-0.0163,-0.0241,-0.0325,-0.0393,-0.0451,-0.0508,-0.0573,-0.0546,-0.0574,-0.0569,-0.0582,-0.0529,-0.0525,-0.0574,-0.0573,-0.0573,-0.0573,0,0,0.0093,0.0066,0.0066,0.0059,0.0011,0.0005,-0.0044,-0.0096,-0.0108,-0.0177,-0.0192,-0.0352,-0.0377,-0.0431,-0.0513,-0.0559,-0.0559,-0.0576,-0.0576,-0.0516,-0.0534,-0.045,-0.0437,-0.0592,-0.0593,-0.0593,-0.0482,0,0.0125,0.0137,0.0104,0.0104,0.0096,0.0033,0.0001,-0.0051,-0.0093,-0.0111,-0.0226,-0.0258,-0.0376,-0.0394,-0.0469,-0.0528,-0.0553,-0.0583,-0.0539,-0.0536,-0.0453,-0.0432,-0.0396,-0.029,-0.0478,-0.0477,-0.0476,0,0.0159,0.016,0.0169,0.0142,0.0133,0.0125,0.0073,0.0044,-0.0019,-0.0037,-0.0105,-0.0154,-0.025,-0.0315,-0.0427,-0.0437,-0.0483,-0.0531,-0.0528,-0.0447,-0.0446,-0.0315,-0.0275,-0.0504,-0.047,-0.047,-0.0471,0,0.0206,0.0198,0.0208,0.0199,0.0165,0.0149,0.0126,0.0066,0.0077,0.0036,0.0089,-0.0053,-0.0038,-0.0174,-0.0278,-0.0345,-0.034,-0.0433,-0.0397,-0.0389,-0.0346,-0.0334,-0.0514,-0.0484,-0.0484,-0.0484,-0.0485,0,0.024,0.0247,0.0238,0.0244,0.0269,0.0212,0.0242,0.0199,0.0204,0.0285,0.0153,0.0233,0.0001,-0.0026,-0.0189,-0.0239,-0.0257,-0.0371,-0.0359,-0.0341,-0.033,-0.0518,-0.0645,-0.048,-0.0481,-0.0482,-0.0482,0,0.0288,0.0276,0.0299,0.0288,0.0295,0.0314,0.0354,0.0397,0.0381,0.0501,0.0519,0.0484,0.0474,0.0276,0.0131,-0.0046,-0.0238,-0.0164,-0.0092,-0.0076,-0.0302,-0.0428,-0.0492,-0.0577,-0.0128,-0.0125,-0.0123,0,0.031,0.0328,0.0362,0.0412,0.0416,0.0454,0.0508,0.0491,0.0574,0.0691,0.0792,0.0822,0.0914,0.074,0.0442,0.0229,-0.0039,0.0074,-0.0085,-0.0286,-0.042,-0.0505,-0.0581,-0.0014,-0.0011,-0.0008,-0.0007,0,0.0367,0.0387,0.0426,0.0534,0.0604,0.0689,0.077,0.0867,0.0915,0.1058,0.1274,0.1364,0.1243,0.1078,0.076,0.0542,-0.0068,0.012,-0.0135,-0.0372,-0.043,-0.0513,-0.0084,0.0015,0.0013,0.0011,0.001,0.0009,0.0434,0.0493,0.0574,0.0674,0.0776,0.093,0.1033,0.1181,0.1375,0.1618,0.1669,0.188,0.1535,0.1137,0.0828,0.0198,0.0168,-0.0054,-0.0187,-0.0252,-0.0361,0.0157,0.0287,0.0286,0.0286,0.0285,0.0285,0,0.0539,0.0613,0.0718,0.0858,0.1007,0.1025,0.1226,0.1366,0.1657,0.1921,0.2142,0.2141,0.1717,0.1169,0.0372,-0.0064,-0.0288,-0.0347,-0.0538,-0.0605,-0.0181,-0.0211,-0.0127,-0.0127,-0.0127,-0.0127,-0.0127,-0.0126,0.0612,0.0739,0.0793,0.104,0.1152,0.1356,0.1485,0.172,0.1933,0.23,0.2483,0.2593,0.2128,0.0726,-0.0283,-0.0535,-0.089,-0.0883,-0.1081,-0.0901,-0.0888,-0.0876,-0.094,-0.101,-0.1012,-0.1463,-0.1468,-0.1471]}],[{"header":{"parameterUnit":"m.s-1","parameterCategory":2,"la1":30.2991,"la2":30.254,"lo1":-89.0895,"lo2":-89.0444,"dy":0.0017,"dx":0.0017,"nx":28,"ny":28,"refTime":"2023-09-25T03:00:00:Z","depth":"2","parameterNumber":2,"parameterNumberName":"U-component_of_CURRENTS"},"data":[0,0,0,0,0,0,0,0,0,0,0,0,0,0,0,0,0,0,0,0,0,0,0,0,0,0,0,0,0,0,0,0,0,0,0,0,0,0,0,0,0,0,0,0,0,0,0,0,0,0,0,0,0,0,0,0,0,0,0.2387,0.2387,0,0.2402,0.2402,0.2402,0.2427,0.2428,0.2428,0.2429,0.2459,0.2459,0.2459,0,0,0,0,0,0,0,0,0,0,0,0,0,0.2355,0.2356,0.2387,0.2387,0.2388,0.2402,0.2402,0.2402,0.2427,0.2428,0.2429,0.2429,0.2459,0.2459,0.2459,0,0,0,0,0,0,0,0,0,0,0,0,0,0.2368,0.2356,0.2387,0.2403,0.2404,0.2402,0.2402,0.2402,0.2427,0.2428,0.2429,0.243,0.2459,0.2459,0.2459,0.2444,0,0,0.246,0.2461,0,0,0,0,0,0,0,0,0.2367,0.2369,0.24,0.2402,0.2404,0.2415,0.2402,0.2418,0.2427,0.2417,0.2429,0.243,0.2446,0.2447,0.2446,0.2445,0.2447,0.246,0.2461,0.2461,0.2461,0,0,0,0,0,0,0,0.2367,0.2369,0.2392,0.24,0.2403,0.2401,0.2404,0.2405,0.2425,0.2418,0.242,0.2424,0.2447,0.2445,0.2447,0.2447,0.246,0.2461,0.2461,0.2461,0.251,0.2511,0,0,0,0,0,0,0.2368,0.2368,0.2391,0.2392,0.2389,0.2401,0.2404,0.2409,0.2425,0.2429,0.2423,0.2425,0.2444,0.2446,0.2448,0.2508,0.2461,0.2461,0.2461,0.2509,0.2511,0.2512,0,0,0,0,0,0,0.2367,0.237,0.2391,0.2381,0.2384,0.2401,0.2406,0.2409,0.2418,0.2429,0.2433,0.243,0.2445,0.2448,0.2469,0.2506,0.2461,0.2462,0.2508,0.251,0.2511,0.2577,0,0,0,0,0,0,0.2366,0.2369,0.2372,0.2381,0.2385,0.2396,0.2406,0.2409,0.2419,0.2422,0.2436,0.2439,0.2446,0.2468,0.2469,0.2506,0.2462,0.2507,0.2509,0.2511,0.2574,0.2581,0.2587,0,0,0,0,0,0.2365,0.2361,0.2372,0.2375,0.2388,0.2396,0.2397,0.2411,0.2419,0.2422,0.2441,0.244,0.2482,0.2469,0.247,0.2508,0.2506,0.2508,0.2511,0.2571,0.258,0.2587,0,0,0,0,0,0,0.2336,0.2363,0.2376,0.2378,0.2391,0.2401,0.2406,0.2412,0.2428,0.2443,0.2446,0.245,0.2495,0.248,0.2465,0.2527,0.2496,0.2499,0.2542,0.255,0.2556,0.2588,0.2462,0,0,0,0,0,0.2334,0.2351,0.2367,0.2372,0.238,0.2394,0.2399,0.2416,0.2431,0.2439,0.2453,0.2473,0.2502,0.2508,0.2532,0.2546,0.2575,0.2572,0.2579,0.2585,0.2611,0.2695,0.2713,0.252,0.252,0.252,0,0,0.2328,0.2343,0.2354,0.2369,0.2383,0.2411,0.2399,0.242,0.245,0.2439,0.2484,0.2503,0.2515,0.2556,0.2571,0.2546,0.265,0.2588,0.2593,0.2616,0.27,0.2719,0.2736,0.2522,0.2521,0.2521,0,0,0.233,0.2337,0.2359,0.2375,0.2405,0.2422,0.243,0.2455,0.247,0.2509,0.2525,0.2561,0.2585,0.261,0.2623,0.2671,0.2695,0.2678,0.2726,0.2807,0.2825,0.284,0.2886,0.2905,0.2667,0.2667,0.2667,0,0.2332,0.235,0.2362,0.2389,0.2411,0.2432,0.2465,0.2483,0.2516,0.2533,0.2536,0.2618,0.2619,0.2681,0.2707,0.269,0.2736,0.2694,0.2819,0.2836,0.2851,0.2894,0.2915,0.267,0.267,0.267,0.2669,0,0.2345,0.2373,0.2385,0.244,0.2463,0.2491,0.2528,0.2557,0.2586,0.2608,0.268,0.2701,0.2748,0.2754,0.2749,0.2851,0.2848,0.2832,0.2804,0.2875,0.2914,0.2935,0.2675,0.2674,0.2673,0.2672,0,0,0.2341,0.2389,0.2401,0.2426,0.2494,0.2509,0.2575,0.2623,0.2682,0.2713,0.2793,0.283,0.2851,0.2868,0.2872,0.2936,0.3064,0.2937,0.2939,0.2992,0.3245,0.3146,0.3158,0.3088,0.3092,0.3095,0.3224,0,0.236,0.2407,0.2437,0.2498,0.2527,0.2573,0.2641,0.2694,0.275,0.2833,0.2857,0.2944,0.2889,0.2948,0.2996,0.3064,0.3125,0.303,0.3161,0.3164,0.3077,0.3181,0.2908,0.2993,0.3244,0.3247,0.325,0,0.2371,0.2405,0.2458,0.2534,0.2555,0.2603,0.2713,0.2778,0.289,0.295,0.3023,0.3061,0.3145,0.3116,0.3238,0.319,0.3232,0.327,0.3275,0.3182,0.3105,0.2966,0.3021,0.3284,0.3281,0.3278,0.3276,0,0.2346,0.2419,0.2456,0.2479,0.2577,0.2617,0.2686,0.2807,0.2892,0.3044,0.3135,0.3216,0.3295,0.3362,0.3388,0.3352,0.3542,0.3487,0.3432,0.3423,0.3214,0.318,0.3611,0.3611,0.3611,0.361,0.361,0,0.234,0.2376,0.2444,0.2461,0.2545,0.2618,0.2742,0.2829,0.2999,0.31,0.3194,0.3286,0.3376,0.3457,0.3471,0.3506,0.3594,0.3479,0.3471,0.3223,0.319,0.3455,0.3435,0.3615,0.3614,0.3613,0.3612,0,0.2309,0.2348,0.2401,0.2494,0.253,0.2596,0.2772,0.286,0.3033,0.3183,0.3243,0.3387,0.3489,0.3551,0.3677,0.3603,0.3658,0.365,0.3334,0.3286,0.3463,0.3445,0.3611,0.361,0.3608,0.3607,0.3605,0,0.2296,0.2311,0.2412,0.2456,0.2498,0.2613,0.2698,0.2871,0.2969,0.32,0.3253,0.3423,0.347,0.3607,0.3579,0.3611,0.3676,0.3354,0.3224,0.3498,0.3474,0.3458,0.3443,0.2967,0.296,0.2955,0.2951,0,0.2282,0.2317,0.2358,0.2453,0.2521,0.2611,0.2731,0.2791,0.2977,0.3109,0.3222,0.3285,0.3406,0.3302,0.3364,0.3328,0.3321,0.3249,0.3666,0.2998,0.2898,0.2871,0.2876,0.2905,0.291,0.2913,0.2916,0.2917,0.2289,0.2311,0.2375,0.2446,0.2523,0.2565,0.2585,0.268,0.279,0.287,0.3013,0.3021,0.3062,0.3006,0.2935,0.2898,0.3111,0.2952,0.2965,0.2984,0.2876,0.2778,0.2741,0.2745,0.2748,0.275,0.2753,0,0.2286,0.2321,0.2374,0.2432,0.2432,0.252,0.2581,0.2518,0.2528,0.2629,0.2682,0.2482,0.2448,0.2527,0.2397,0.2391,0.2342,0.2297,0.2206,0.2254,0.2297,0.215,0.1825,0.1821,0.1819,0.1816,0,0,0.2299,0.2313,0.2311,0.2308,0.2339,0.2318,0.2299,0.219,0.2211,0.2133,0.2151,0.229,0.2432,0.2082,0.2049,0.1917,0.2061,0.1843,0.2593,0.2534,0.2572,0.2689,0.252,0,0,0,0,0]},{"header":{"parameterUnit":"m.s-1","parameterCategory":2,"la1":30.2991,"la2":30.254,"lo1":-89.0895,"lo2":-89.0444,"dy":0.0017,"dx":0.0017,"nx":28,"ny":28,"refTime":"2023-09-25T03:00:00:Z","depth":"2","parameterNumber":3,"parameterNumberName":"V-component_of_CURRENTS"},"data":[0,0,0,0,0,0,0,0,0,0,0,0,0,0,0,0,0,0,0,0,0,0,0,0,0,0,0,0,0,0,0,0,0,0,0,0,0,0,0,0,0,0,0,0,0,0,0,0,0,0,0,0,0,0,0,0,0,0,0.0135,0.0135,0,0.0079,0.0078,0.0077,0.004,0.004,0.004,0.004,-0.0066,-0.0069,-0.0072,0,0,0,0,0,0,0,0,0,0,0,0,0,0.0161,0.0161,0.0135,0.0135,0.0134,0.0079,0.0078,0.0077,0.004,0.004,0.004,0.004,-0.0065,-0.0068,-0.0072,0,0,0,0,0,0,0,0,0,0,0,0,0,0.013,0.016,0.0135,0.011,0.0108,0.0079,0.0078,0.0077,0.004,0.004,0.004,0.004,-0.0064,-0.0068,-0.0072,-0.0095,0,0,-0.0085,-0.0087,0,0,0,0,0,0,0,0,0.0132,0.0129,0.0115,0.0112,0.0109,0.0068,0.0048,0.0017,0.004,0.0064,0.004,0.004,-0.0025,-0.0032,-0.0044,-0.01,-0.0105,-0.0085,-0.0088,-0.0089,-0.0091,0,0,0,0,0,0,0,0.0134,0.0131,0.0111,0.0114,0.0111,0.0084,0.008,0.0042,0.0019,0.0062,0.006,0.0056,-0.0027,-0.004,-0.0047,-0.0106,-0.0085,-0.0089,-0.0091,-0.0093,-0.0176,-0.0176,0,0,0,0,0,0,0.0147,0.0133,0.0113,0.011,0.0122,0.0085,0.008,0.008,0.002,0.0012,0.0056,0.0054,-0.0033,-0.0042,-0.0051,-0.005,-0.0089,-0.0093,-0.0096,-0.0176,-0.0176,-0.0175,0,0,0,0,0,0,0.0148,0.0146,0.0115,0.0121,0.0116,0.0085,0.0085,0.0079,0.007,0.0017,0.0007,0.0054,-0.0033,-0.0045,-0.0081,-0.0056,-0.0095,-0.0099,-0.0176,-0.0176,-0.0176,-0.0069,0,0,0,0,0,0,0.0149,0.0147,0.0149,0.0122,0.0116,0.0108,0.0085,0.0078,0.0068,0.0066,0.0012,0.0002,-0.0034,-0.0074,-0.0085,-0.0062,-0.0102,-0.0177,-0.0176,-0.0176,-0.0073,-0.0065,-0.0058,0,0,0,0,0,0.015,0.016,0.015,0.0147,0.0121,0.0109,0.0103,0.0079,0.0069,0.007,0.0031,0.0003,-0.0078,-0.0077,-0.009,-0.0068,-0.0177,-0.0176,-0.0176,-0.0076,-0.0066,-0.0058,0,0,0,0,0,0,0.0169,0.0156,0.0145,0.0149,0.0134,0.0104,0.0101,0.0086,0.0056,0.005,0.0001,-0.0012,-0.0037,-0.0071,-0.0069,-0.0092,-0.013,-0.0132,-0.005,-0.0042,-0.0035,-0.0015,-0.0105,0,0,0,0,0,0.0176,0.0182,0.0161,0.0164,0.0158,0.0131,0.0122,0.0106,0.0078,0.0065,0.0029,-0.0012,-0.0045,-0.0057,-0.0101,-0.0111,-0.0152,-0.0106,-0.0098,-0.0092,-0.0086,-0.0137,-0.0133,-0.0173,-0.0173,-0.0174,0,0,0.0182,0.0177,0.0179,0.0169,0.0153,0.0155,0.0125,0.0117,0.0125,0.0057,0.005,0.0003,-0.0047,-0.0061,-0.0074,-0.0082,-0.0099,-0.0091,-0.0084,-0.0083,-0.0136,-0.0132,-0.0128,-0.0173,-0.0173,-0.0173,0,0,0.0205,0.0196,0.0209,0.0202,0.0187,0.0174,0.0176,0.015,0.0145,0.0124,0.0084,0.0057,-0.0001,-0.0016,-0.0035,-0.0015,-0.007,-0.003,0.0037,-0.0011,-0.0008,-0.0006,-0.0035,-0.0037,-0.0012,-0.0012,-0.0012,0,0.021,0.0229,0.0209,0.022,0.0227,0.0189,0.0209,0.0195,0.0162,0.0172,0.0131,0.0068,0.0024,0.0031,0.0036,0.0005,-0.0033,0.0014,0.0,0.0001,0.0002,-0.0029,-0.0032,-0.0007,-0.0007,-0.0008,-0.0008,0,0.0245,0.0256,0.0264,0.0271,0.0276,0.0284,0.0272,0.0277,0.0258,0.024,0.0227,0.016,0.0129,0.0115,0.0078,0.0078,0.0046,0.0007,-0.0015,0.0013,-0.0022,-0.0027,0.0001,-0.0001,-0.0003,-0.0004,0,0,0.0263,0.0286,0.0288,0.0318,0.0309,0.0328,0.0347,0.0367,0.0387,0.0342,0.0361,0.0306,0.0262,0.0237,0.0193,0.0159,0.0131,0.0092,0.0087,0.0076,0.0031,0.0008,0.0,0.0083,0.0082,0.0082,0.0013,0,0.0296,0.0345,0.0346,0.0401,0.0429,0.0425,0.0452,0.0464,0.0442,0.0441,0.0397,0.0367,0.0313,0.0288,0.0251,0.0153,0.012,0.0154,-0.0006,-0.001,-0.0024,-0.0006,0.0017,-0.0044,0.0008,0.0007,0.0006,0,0.0329,0.0365,0.0425,0.0494,0.0508,0.0532,0.0589,0.0602,0.059,0.0564,0.0534,0.0473,0.0439,0.0358,0.0241,0.0262,0.0156,0.0077,0.0072,0.0008,-0.0043,-0.007,-0.0056,-0.0003,-0.0002,-0.0001,-0.0001,0,0.0375,0.043,0.0493,0.0509,0.0563,0.0609,0.0636,0.0642,0.0681,0.0628,0.0636,0.0557,0.0527,0.039,0.0248,0.0228,0.0099,0.0049,-0.0062,-0.0064,-0.0098,-0.0102,-0.0052,-0.0052,-0.0052,-0.0051,-0.0051,0,0.0419,0.0471,0.0521,0.056,0.0648,0.0661,0.0737,0.0739,0.0753,0.0807,0.0699,0.0717,0.0526,0.0442,0.0279,0.0114,0.0125,-0.0046,-0.0085,-0.0059,-0.0058,-0.0072,-0.0073,-0.0054,-0.0053,-0.0053,-0.0052,0,0.0457,0.048,0.0568,0.0645,0.067,0.0734,0.0826,0.0882,0.0864,0.0927,0.0922,0.0847,0.072,0.0541,0.0319,0.0175,-0.0004,-0.0072,-0.0015,-0.0047,-0.0145,-0.014,-0.021,-0.0211,-0.0212,-0.0213,-0.0214,0,0.0481,0.0522,0.0634,0.069,0.0727,0.0815,0.0884,0.0921,0.0984,0.1025,0.1073,0.0976,0.0918,0.0602,0.0311,0.0029,-0.0003,-0.0135,-0.0178,-0.0131,-0.0163,-0.0156,-0.015,-0.0174,-0.0174,-0.0175,-0.0175,0,0.053,0.0568,0.0653,0.0757,0.0846,0.0952,0.105,0.1129,0.1187,0.1249,0.1293,0.1246,0.095,0.0657,0.0271,0.0081,-0.0093,-0.0153,-0.0124,-0.0135,-0.0103,-0.0132,-0.0126,-0.0178,-0.0178,-0.0178,-0.0177,-0.0177,0.0576,0.064,0.0736,0.0839,0.0943,0.1062,0.1158,0.1275,0.1397,0.1475,0.1434,0.1354,0.1035,0.0519,0.021,-0.0119,-0.0119,-0.0244,-0.0241,-0.0237,-0.0219,-0.019,-0.0278,-0.0278,-0.0278,-0.0278,-0.0278,0,0.062,0.0689,0.08,0.0935,0.1054,0.1088,0.1255,0.1353,0.1503,0.155,0.1556,0.1243,0.0917,0.0567,0.0076,-0.0221,-0.0239,-0.0308,-0.0263,-0.0258,-0.0254,-0.0235,-0.0299,-0.03,-0.03,-0.0301,0,0,0.065,0.075,0.0805,0.0985,0.1082,0.1238,0.1333,0.1467,0.1541,0.1578,0.1524,0.1398,0.0996,0.0641,0.0248,-0.0021,-0.0071,-0.0077,-0.0032,0.0072,0.008,-0.0194,-0.0156,0,0,0,0,0]}],[{"header":{"parameterUnit":"m.s-1","parameterCategory":2,"la1":30.2991,"la2":30.254,"lo1":-89.0895,"lo2":-89.0444,"dy":0.0017,"dx":0.0017,"nx":28,"ny":28,"refTime":"2023-09-25T03:00:00:Z","depth":"4","parameterNumber":2,"parameterNumberName":"U-component_of_CURRENTS"},"data":[0,0,0,0,0,0,0,0,0,0,0,0,0,0,0,0,0,0,0,0,0,0,0,0,0,0,0,0,0,0,0,0,0,0,0,0,0,0,0,0,0,0,0,0,0,0,0,0,0,0,0,0,0,0,0,0,0,0,0.1359,0.136,0,0.1406,0.1407,0.1407,0.1448,0.1449,0.145,0.1451,0.1519,0.152,0.1521,0,0,0,0,0,0,0,0,0,0,0,0,0,0.1296,0.1296,0.1359,0.136,0.1361,0.1406,0.1407,0.1407,0.1448,0.1449,0.145,0.1451,0.1518,0.152,0.1521,0,0,0,0,0,0,0,0,0,0,0,0,0,0.1328,0.1297,0.1359,0.1389,0.1393,0.1406,0.1407,0.1407,0.1448,0.1449,0.145,0.1451,0.1518,0.1519,0.1521,0.1506,0,0,0.1526,0.1526,0,0,0,0,0,0,0,0,0.1326,0.1329,0.1384,0.1387,0.1391,0.1426,0.141,0.1443,0.1448,0.1423,0.1451,0.1452,0.1491,0.1495,0.1495,0.1509,0.1512,0.1526,0.1527,0.1528,0.1528,0,0,0,0,0,0,0,0.1324,0.1328,0.1374,0.1385,0.1389,0.1399,0.1404,0.1416,0.1447,0.1425,0.1429,0.144,0.1493,0.1494,0.1498,0.1513,0.1526,0.1527,0.1528,0.1529,0.161,0.1611,0,0,0,0,0,0,0.1324,0.1325,0.1372,0.1376,0.1365,0.1399,0.1405,0.1411,0.1447,0.1454,0.1439,0.1442,0.149,0.1496,0.15,0.1561,0.1528,0.1529,0.153,0.1608,0.161,0.1611,0,0,0,0,0,0,0.1323,0.1328,0.137,0.1355,0.1362,0.1399,0.1405,0.1411,0.1443,0.1458,0.1465,0.147,0.1492,0.1498,0.1535,0.1561,0.153,0.1531,0.1607,0.1609,0.1611,0.1633,0,0,0,0,0,0,0.132,0.1327,0.1343,0.1355,0.1363,0.1396,0.1404,0.1411,0.1448,0.1453,0.1486,0.1491,0.1493,0.1533,0.1537,0.1563,0.1532,0.1606,0.1608,0.161,0.1631,0.1636,0.164,0,0,0,0,0,0.1318,0.133,0.1343,0.135,0.138,0.1397,0.1402,0.143,0.1449,0.1464,0.1488,0.1492,0.155,0.1535,0.1539,0.1566,0.1604,0.1607,0.161,0.1629,0.1635,0.164,0,0,0,0,0,0,0.131,0.1336,0.1351,0.1371,0.1394,0.1407,0.143,0.1446,0.1475,0.1492,0.1502,0.1509,0.1558,0.1556,0.1539,0.1597,0.158,0.1584,0.1594,0.1599,0.1603,0.1617,0.1534,0,0,0,0,0,0.1316,0.1336,0.1357,0.1378,0.1392,0.1416,0.1433,0.1452,0.1475,0.1491,0.151,0.1537,0.1565,0.1579,0.1603,0.1624,0.1647,0.1647,0.1652,0.1655,0.167,0.1718,0.1728,0.162,0.162,0.162,0,0,0.1322,0.1339,0.1353,0.1379,0.1401,0.1418,0.1429,0.1464,0.1485,0.1493,0.1534,0.1559,0.1579,0.1612,0.1633,0.1616,0.17,0.1658,0.1661,0.1675,0.1722,0.1733,0.1742,0.1622,0.1622,0.1621,0,0,0.133,0.1357,0.1374,0.1391,0.1429,0.1442,0.1459,0.1486,0.1512,0.1549,0.1567,0.1603,0.1639,0.1652,0.1665,0.1706,0.173,0.1722,0.1744,0.179,0.1799,0.1808,0.1856,0.1869,0.1713,0.1713,0.1713,0,0.1341,0.1356,0.1382,0.1397,0.1413,0.1455,0.1469,0.1498,0.1536,0.1562,0.1573,0.165,0.1658,0.1703,0.1717,0.1716,0.1753,0.1719,0.1796,0.1805,0.1813,0.186,0.1874,0.1714,0.1714,0.1714,0.1714,0,0.1345,0.137,0.1382,0.1413,0.1433,0.1457,0.1493,0.1527,0.1567,0.16,0.1673,0.1693,0.1742,0.1746,0.1744,0.1807,0.182,0.1803,0.1781,0.1825,0.1872,0.1886,0.1716,0.1716,0.1715,0.1715,0,0,0.1336,0.1378,0.1385,0.1397,0.1444,0.1454,0.1502,0.155,0.1596,0.1652,0.1714,0.1758,0.1797,0.1815,0.1824,0.1852,0.1931,0.1856,0.1858,0.1902,0.2054,0.1916,0.1918,0.1936,0.1938,0.194,0.2064,0,0.1335,0.1354,0.1379,0.1406,0.1415,0.1462,0.1494,0.1549,0.1618,0.1691,0.175,0.1825,0.1817,0.1859,0.1888,0.1935,0.1969,0.19,0.2007,0.201,0.188,0.1929,0.1948,0.2074,0.2078,0.208,0.2082,0,0.1324,0.1338,0.1355,0.1391,0.1401,0.1434,0.1501,0.1544,0.1658,0.1713,0.1811,0.1882,0.1966,0.1944,0.2055,0.2021,0.2046,0.2065,0.207,0.1944,0.1898,0.2021,0.2107,0.2105,0.2103,0.2101,0.2099,0,0.128,0.1319,0.1331,0.1342,0.139,0.1423,0.1471,0.1565,0.1611,0.1766,0.1845,0.195,0.2042,0.209,0.215,0.2123,0.226,0.222,0.212,0.2112,0.2189,0.2178,0.2289,0.2289,0.2289,0.2288,0.2288,0,0.1246,0.126,0.1321,0.1326,0.1356,0.1406,0.1473,0.154,0.1649,0.173,0.1879,0.1966,0.209,0.2186,0.2197,0.2211,0.2306,0.2143,0.2135,0.2196,0.2185,0.2199,0.2187,0.2293,0.2292,0.2291,0.229,0,0.1184,0.1224,0.1241,0.1305,0.1338,0.1365,0.147,0.1515,0.1647,0.1768,0.1833,0.2018,0.2151,0.2243,0.2338,0.2274,0.2288,0.2262,0.2349,0.2342,0.2101,0.2089,0.2168,0.2164,0.2161,0.2158,0.2156,0,0.1144,0.115,0.1225,0.1248,0.1289,0.1351,0.1395,0.1504,0.1562,0.1781,0.1832,0.2033,0.2145,0.2189,0.2271,0.2301,0.2261,0.226,0.2147,0.2104,0.209,0.2083,0.2075,0.2151,0.215,0.2149,0.2148,0,0.1073,0.1117,0.114,0.1188,0.1241,0.1278,0.1368,0.1388,0.153,0.1676,0.1795,0.1886,0.2038,0.2111,0.2163,0.2165,0.2252,0.2225,0.2231,0.2125,0.2084,0.2072,0.2068,0.2137,0.2139,0.214,0.2141,0,0.1028,0.1031,0.1078,0.1103,0.1172,0.1189,0.1242,0.1315,0.1375,0.1606,0.1641,0.1856,0.2016,0.2043,0.208,0.2088,0.2043,0.1956,0.1974,0.1988,0.1867,0.1786,0.1754,0,0,0,0,0,0.0968,0.0962,0.0988,0.1,0.1065,0.1105,0.1208,0.1263,0.1417,0.1452,0.1529,0.1656,0.1759,0.1859,0.1831,0.1992,0.2042,0.1949,0.1947,0.2075,0.2088,0.196,0,0,0,0,0,0,0.0921,0.0949,0.0948,0.0915,0.0917,0.0967,0.1036,0.1139,0.1157,0.1334,0.1399,0.1541,0.1663,0.1756,0.1795,0.1822,0.1782,0.2061,0.2056,0.2068,0.208,0.209,0.1963,0,0,0,0,0]},{"header":{"parameterUnit":"m.s-1","parameterCategory":2,"la1":30.2991,"la2":30.254,"lo1":-89.0895,"lo2":-89.0444,"dy":0.0017,"dx":0.0017,"nx":28,"ny":28,"refTime":"2023-09-25T03:00:00:Z","depth":"4","parameterNumber":3,"parameterNumberName":"V-component_of_CURRENTS"},"data":[0,0,0,0,0,0,0,0,0,0,0,0,0,0,0,0,0,0,0,0,0,0,0,0,0,0,0,0,0,0,0,0,0,0,0,0,0,0,0,0,0,0,0,0,0,0,0,0,0,0,0,0,0,0,0,0,0,0,0.0181,0.0181,0,0.0151,0.015,0.015,0.0138,0.0138,0.0139,0.0139,0.007,0.0068,0.0066,0,0,0,0,0,0,0,0,0,0,0,0,0,0.0197,0.0197,0.0181,0.0181,0.018,0.0151,0.015,0.015,0.0138,0.0138,0.0139,0.0139,0.007,0.0068,0.0066,0,0,0,0,0,0,0,0,0,0,0,0,0,0.0181,0.0197,0.0181,0.0171,0.017,0.0151,0.015,0.015,0.0138,0.0138,0.0139,0.0139,0.0071,0.0068,0.0066,0.0046,0,0,0.0057,0.0056,0,0,0,0,0,0,0,0,0.0182,0.018,0.0173,0.0171,0.017,0.0148,0.0131,0.0113,0.0138,0.015,0.0139,0.0139,0.0092,0.0088,0.0083,0.0042,0.004,0.0057,0.0055,0.0054,0.0053,0,0,0,0,0,0,0,0.0183,0.0182,0.0169,0.0172,0.0171,0.0157,0.0155,0.0128,0.012,0.0149,0.0148,0.0145,0.0091,0.0085,0.0081,0.0038,0.0057,0.0054,0.0052,0.0051,0.0005,0.0005,0,0,0,0,0,0,0.0188,0.0183,0.017,0.0168,0.0176,0.0157,0.0155,0.0155,0.0121,0.0117,0.0145,0.0144,0.009,0.0084,0.0078,0.0092,0.0054,0.0051,0.0049,0.0004,0.0005,0.0005,0,0,0,0,0,0,0.0189,0.0188,0.0171,0.0174,0.0171,0.0157,0.0157,0.0155,0.0153,0.0118,0.0113,0.0147,0.009,0.0082,0.0061,0.0088,0.005,0.0047,0.0004,0.0004,0.0005,0.0095,0,0,0,0,0,0,0.0189,0.0188,0.0192,0.0175,0.0171,0.0168,0.0157,0.0154,0.0151,0.015,0.0118,0.0112,0.0089,0.0065,0.0058,0.0083,0.0045,0.0003,0.0004,0.0005,0.0091,0.0098,0.0105,0,0,0,0,0,0.019,0.0197,0.0193,0.0191,0.0177,0.0168,0.0165,0.0155,0.0151,0.0153,0.0132,0.0113,0.0066,0.0063,0.0054,0.008,0.0003,0.0004,0.0005,0.0088,0.0097,0.0104,0,0,0,0,0,0,0.02,0.0196,0.0191,0.0195,0.0185,0.0166,0.0168,0.0159,0.0144,0.0144,0.0112,0.0104,0.0099,0.0069,0.0067,0.0067,0.0034,0.0033,0.01,0.0108,0.0115,0.0129,0.0042,0,0,0,0,0,0.0205,0.0214,0.0201,0.0203,0.0202,0.0186,0.0182,0.0174,0.0158,0.0152,0.013,0.0108,0.0095,0.0086,0.0064,0.0058,0.0017,0.0069,0.0076,0.0082,0.0087,0.0051,0.0056,0.0009,0.0009,0.0009,0,0,0.0208,0.0207,0.021,0.0206,0.02,0.0209,0.0184,0.0182,0.0193,0.0145,0.0151,0.0127,0.0097,0.0098,0.0093,0.0078,0.0071,0.0083,0.0089,0.009,0.0053,0.0057,0.0061,0.001,0.0009,0.0009,0,0,0.0222,0.0219,0.0234,0.0233,0.0229,0.0224,0.0226,0.0213,0.0212,0.0208,0.0185,0.0176,0.0147,0.0141,0.0132,0.0158,0.0107,0.0151,0.02,0.0167,0.0171,0.0173,0.012,0.0118,0.0157,0.0157,0.0158,0,0.0225,0.0245,0.0234,0.0249,0.0258,0.0237,0.0257,0.0252,0.0233,0.0241,0.022,0.02,0.0173,0.0187,0.0199,0.0176,0.0137,0.0177,0.0177,0.0179,0.018,0.0125,0.0121,0.0162,0.0161,0.0161,0.0161,0,0.0251,0.0269,0.0277,0.0298,0.0304,0.0316,0.0313,0.0318,0.0314,0.0311,0.0318,0.0279,0.0271,0.0265,0.0239,0.0247,0.0208,0.019,0.0161,0.0191,0.013,0.0124,0.0168,0.0167,0.0165,0.0164,0,0,0.0255,0.0291,0.0296,0.0323,0.0335,0.0347,0.037,0.0392,0.0419,0.0396,0.0421,0.0401,0.038,0.0367,0.0336,0.0309,0.0281,0.0258,0.0254,0.0213,0.0188,0.0149,0.0138,0.0261,0.0261,0.0261,0.0139,0,0.0282,0.0332,0.0341,0.0393,0.0422,0.0423,0.0455,0.047,0.0474,0.0487,0.0458,0.0462,0.042,0.0417,0.0387,0.0303,0.0271,0.0314,0.0158,0.0153,0.0122,0.0132,0.026,0.0134,0.0133,0.0132,0.0131,0,0.0306,0.0343,0.0402,0.0463,0.0477,0.0505,0.0562,0.0586,0.06,0.0599,0.0595,0.0558,0.0523,0.0478,0.036,0.0386,0.0299,0.023,0.0223,0.0153,0.0104,0.0098,0.012,0.0121,0.0121,0.0122,0.0123,0,0.033,0.0387,0.0445,0.0461,0.0521,0.0556,0.0593,0.0627,0.0656,0.0668,0.0674,0.0628,0.059,0.049,0.0341,0.0349,0.0189,0.0181,0.0064,0.0059,0.0091,0.0089,0.0102,0.0102,0.0103,0.0103,0.0103,0,0.0358,0.0404,0.0463,0.0497,0.0573,0.0602,0.0679,0.0705,0.0736,0.0769,0.0735,0.0719,0.0589,0.0479,0.0355,0.018,0.0195,0.007,0.003,0.0129,0.0133,0.0086,0.0085,0.0098,0.0099,0.01,0.0101,0,0.0372,0.041,0.0484,0.0562,0.0589,0.0648,0.073,0.0778,0.0804,0.0836,0.0836,0.0767,0.0622,0.0473,0.0285,0.0189,0.0034,-0.0031,0.0068,0.0036,-0.0077,-0.0072,-0.0162,-0.0164,-0.0166,-0.0168,-0.0169,0,0.0385,0.0423,0.0528,0.0576,0.0615,0.0699,0.0756,0.0809,0.0849,0.0855,0.086,0.0742,0.0671,0.0379,0.0223,-0.0019,-0.0048,-0.0123,-0.0076,-0.0072,-0.0102,-0.0093,-0.0085,-0.0172,-0.0172,-0.0173,-0.0173,0,0.0406,0.0445,0.0509,0.0607,0.0679,0.0758,0.0834,0.0861,0.091,0.0925,0.0863,0.0731,0.056,0.0355,0.016,-0.0007,-0.0066,-0.0143,-0.0139,-0.0096,-0.0085,-0.0112,-0.0101,-0.018,-0.0179,-0.0179,-0.0178,0,0.0422,0.0465,0.0546,0.0634,0.0721,0.0789,0.0835,0.0865,0.0899,0.09,0.0864,0.0708,0.0616,0.0357,0.0178,0.0007,-0.0024,-0.0056,-0.0057,-0.0051,0.0021,0.0054,-0.0033,0,0,0,0,0,0.043,0.0477,0.056,0.0658,0.0742,0.079,0.0871,0.0905,0.094,0.0898,0.0884,0.0727,0.0468,0.036,0.0179,0.0138,-0.0057,-0.0078,-0.0095,-0.0217,-0.0209,-0.0145,0,0,0,0,0,0,0.0437,0.0508,0.0555,0.0654,0.0716,0.0804,0.0858,0.0884,0.086,0.0867,0.0726,0.0681,0.0421,0.0559,0.0171,0.0122,0.0088,-0.0192,-0.0196,-0.0221,-0.0214,-0.0208,-0.014,0,0,0,0,0]}]]